| time (UTC) | temp F | wind direction | speed MPH | gust MPH | rain 1hr in | rain 24hr in | rain mn in | humidity % | barometer mb |
| 20260902031851 | 83 | 0 | 1.0 | 2.0 | 0.00 | 0.00 | 0.00 | 42 | 1015.9 |
| 20260902031347 | 83 | 8 | 0.0 | 1.0 | 0.00 | 0.00 | 0.00 | 42 | 1015.9 |
| 20260902030842 | 83 | 342 | 2.0 | 2.0 | 0.00 | 0.00 | 0.00 | 42 | 1015.9 |
| 20260902030337 | 84 | 343 | 1.0 | 2.0 | 0.00 | 0.00 | 0.00 | 41 | 1015.7 |
| 20260902025836 | 84 | 16 | 0.0 | 1.0 | 0.00 | 0.00 | 0.00 | 41 | 1015.6 |
| 20260902025332 | 84 | 352 | 0.0 | 1.0 | 0.00 | 0.00 | 0.00 | 41 | 1015.6 |
| 20260902024832 | 84 | 32 | 0.0 | 1.0 | 0.00 | 0.00 | 0.00 | 41 | 1015.7 |
| 20260902024328 | 85 | 55 | 0.0 | 1.0 | 0.00 | 0.00 | 0.00 | 40 | 1015.6 |
| 20260902023823 | 85 | 25 | 0.0 | 1.0 | 0.00 | 0.00 | 0.00 | 40 | 1015.6 |
| 20260902023318 | 85 | 60 | 0.0 | 1.0 | 0.00 | 0.00 | 0.00 | 40 | 1015.4 |
| 20260902022817 | 85 | 40 | 1.0 | 1.0 | 0.00 | 0.00 | 0.00 | 39 | 1015.3 |
| 20260902022312 | 86 | 347 | 0.0 | 1.0 | 0.00 | 0.00 | 0.00 | 39 | 1015.3 |
| 20260902021808 | 86 | 350 | 1.0 | 2.0 | 0.00 | 0.00 | 0.00 | 38 | 1015.2 |
| 20260902021303 | 86 | 25 | 0.0 | 1.0 | 0.00 | 0.00 | 0.00 | 38 | 1015.1 |
| 20260902020759 | 87 | 353 | 0.0 | 1.0 | 0.00 | 0.00 | 0.00 | 37 | 1014.9 |
| 20260902020255 | 87 | 354 | 1.0 | 1.0 | 0.00 | 0.00 | 0.00 | 37 | 1015.0 |
| 20260902015749 | 87 | 48 | 0.0 | 2.0 | 0.00 | 0.00 | 0.00 | 37 | 1015.2 |
| 20260902015246 | 88 | 19 | 0.0 | 2.0 | 0.00 | 0.00 | 0.00 | 36 | 1015.0 |
| 20260902014742 | 88 | 51 | 1.0 | 2.0 | 0.00 | 0.00 | 0.00 | 36 | 1014.8 |
| 20260902014238 | 89 | 41 | 1.0 | 2.0 | 0.00 | 0.00 | 0.00 | 35 | 1014.8 |
| 20260902013736 | 89 | 50 | 1.0 | 2.0 | 0.00 | 0.00 | 0.00 | 35 | 1014.9 |
| 20260902013232 | 90 | 3 | 2.0 | 2.0 | 0.00 | 0.00 | 0.00 | 34 | 1014.9 |
| 20260902012727 | 90 | 5 | 0.0 | 2.0 | 0.00 | 0.00 | 0.00 | 34 | 1014.7 |
| 20260902012223 | 90 | 343 | 0.0 | 2.0 | 0.00 | 0.00 | 0.00 | 34 | 1014.7 |
| 20260902011719 | 90 | 347 | 1.0 | 2.0 | 0.00 | 0.00 | 0.00 | 33 | 1014.6 |
| 20260902011218 | 91 | 73 | 2.0 | 2.0 | 0.00 | 0.00 | 0.00 | 33 | 1014.7 |
| 20260902010717 | 91 | 164 | 0.0 | 2.0 | 0.00 | 0.00 | 0.00 | 33 | 1014.7 |
| 20260902010214 | 91 | 337 | 1.0 | 1.0 | 0.00 | 0.00 | 0.00 | 33 | 1014.6 |
| 20260902005712 | 92 | 358 | 0.0 | 2.0 | 0.00 | 0.00 | 0.00 | 32 | 1014.6 |
| 20260902005208 | 92 | 60 | 0.0 | 1.0 | 0.00 | 0.00 | 0.00 | 32 | 1014.6 |
| 20260902004707 | 93 | 48 | 1.0 | 2.0 | 0.00 | 0.00 | 0.00 | 31 | 1014.7 |
| 20260902004202 | 93 | 297 | 1.0 | 2.0 | 0.00 | 0.00 | 0.00 | 30 | 1014.6 |
| 20260902003658 | 94 | 51 | 1.0 | 2.0 | 0.00 | 0.00 | 0.00 | 29 | 1014.6 |
| 20260902003153 | 95 | 305 | 1.0 | 2.0 | 0.00 | 0.00 | 0.00 | 29 | 1014.7 |
| 20260902002649 | 95 | 25 | 0.0 | 2.0 | 0.00 | 0.00 | 0.00 | 29 | 1014.6 |
| 20260902002149 | 96 | 343 | 0.0 | 2.0 | 0.00 | 0.00 | 0.00 | 29 | 1014.6 |
| 20260902001644 | 97 | 14 | 0.0 | 3.0 | 0.00 | 0.00 | 0.00 | 28 | 1014.7 |
| 20260902001143 | 97 | 62 | 0.0 | 1.0 | 0.00 | 0.00 | 0.00 | 28 | 1014.8 |
| 20260902000639 | 98 | 342 | 1.0 | 2.0 | 0.00 | 0.00 | 0.00 | 27 | 1014.7 |
| 20260902000134 | 99 | 207 | 0.0 | 3.0 | 0.00 | 0.00 | 0.00 | 26 | 1015.0 |
| 20260901235633 | 100 | 31 | 0.0 | 8.0 | 0.00 | 0.00 | 0.00 | 25 | 1014.8 |
| 20260901235129 | 100 | 89 | 0.0 | 6.0 | 0.00 | 0.00 | 0.00 | 25 | 1014.7 |
| 20260901234628 | 100 | 0 | 0.0 | 5.0 | 0.00 | 0.00 | 0.00 | 25 | 1014.7 |
| 20260901234123 | 101 | 206 | 4.0 | 6.0 | 0.00 | 0.00 | 0.00 | 24 | 1014.8 |
| 20260901233618 | 101 | 63 | 2.0 | 5.0 | 0.00 | 0.00 | 0.00 | 24 | 1014.9 |
| 20260901233114 | 101 | 204 | 3.0 | 6.0 | 0.00 | 0.00 | 0.00 | 24 | 1014.9 |
| 20260901232614 | 102 | 99 | 2.0 | 4.0 | 0.00 | 0.00 | 0.00 | 24 | 1014.8 |
| 20260901232109 | 102 | 357 | 0.0 | 3.0 | 0.00 | 0.00 | 0.00 | 24 | 1014.7 |
| 20260901231606 | 102 | 225 | 1.0 | 6.0 | 0.00 | 0.00 | 0.00 | 24 | 1014.7 |
| 20260901231102 | 102 | 232 | 0.0 | 3.0 | 0.00 | 0.00 | 0.00 | 24 | 1014.9 |
| 20260901230557 | 102 | 106 | 1.0 | 4.0 | 0.00 | 0.00 | 0.00 | 24 | 1014.9 |
| 20260901230057 | 102 | 318 | 0.0 | 4.0 | 0.00 | 0.00 | 0.00 | 24 | 1014.7 |
| 20260901225552 | 103 | 314 | 1.0 | 4.0 | 0.00 | 0.00 | 0.00 | 23 | 1014.7 |
| 20260901225052 | 103 | 220 | 0.0 | 6.0 | 0.00 | 0.00 | 0.00 | 23 | 1014.9 |
| 20260901224548 | 104 | 268 | 2.0 | 3.0 | 0.00 | 0.00 | 0.00 | 23 | 1014.9 |
| 20260901224044 | 104 | 308 | 2.0 | 4.0 | 0.00 | 0.00 | 0.00 | 23 | 1014.9 |
| 20260901223539 | 103 | 256 | 1.0 | 5.0 | 0.00 | 0.00 | 0.00 | 23 | 1014.7 |
| 20260901223035 | 103 | 219 | 2.0 | 9.0 | 0.00 | 0.00 | 0.00 | 23 | 1014.8 |
| 20260901222531 | 103 | 247 | 2.0 | 9.0 | 0.00 | 0.00 | 0.00 | 23 | 1014.9 |
| 20260901222026 | 103 | 340 | 1.0 | 6.0 | 0.00 | 0.00 | 0.00 | 24 | 1015.0 |
| 20260901221523 | 103 | 178 | 3.0 | 10.0 | 0.00 | 0.00 | 0.00 | 23 | 1014.8 |
| 20260901221018 | 103 | 172 | 0.0 | 5.0 | 0.00 | 0.00 | 0.00 | 23 | 1014.7 |
| 20260901220517 | 103 | 75 | 0.0 | 6.0 | 0.00 | 0.00 | 0.00 | 23 | 1014.8 |
| 20260901220016 | 103 | 44 | 1.0 | 5.0 | 0.00 | 0.00 | 0.00 | 24 | 1014.9 |
| 20260901215515 | 103 | 166 | 2.0 | 6.0 | 0.00 | 0.00 | 0.00 | 24 | 1014.9 |
| 20260901215015 | 104 | 341 | 2.0 | 9.0 | 0.00 | 0.00 | 0.00 | 23 | 1014.9 |
| 20260901214514 | 104 | 326 | 2.0 | 4.0 | 0.00 | 0.00 | 0.00 | 24 | 1014.9 |
| 20260901214008 | 103 | 269 | 1.0 | 5.0 | 0.00 | 0.00 | 0.00 | 24 | 1015.2 |
| 20260901213502 | 101 | 214 | 1.0 | 6.0 | 0.00 | 0.00 | 0.00 | 25 | 1014.9 |
| 20260901213002 | 102 | 243 | 4.0 | 4.0 | 0.00 | 0.00 | 0.00 | 24 | 1015.3 |
| 20260901212457 | 103 | 247 | 5.0 | 6.0 | 0.00 | 0.00 | 0.00 | 24 | 1015.3 |
| 20260901211953 | 103 | 49 | 2.0 | 5.0 | 0.00 | 0.00 | 0.00 | 23 | 1015.1 |
| 20260901211449 | 104 | 177 | 3.0 | 3.0 | 0.00 | 0.00 | 0.00 | 23 | 1015.3 |
| 20260901210945 | 103 | 180 | 3.0 | 7.0 | 0.00 | 0.00 | 0.00 | 23 | 1015.4 |
| 20260901210440 | 103 | 114 | 2.0 | 12.0 | 0.00 | 0.00 | 0.00 | 24 | 1015.3 |
| 20260901205936 | 102 | 198 | 10.0 | 13.0 | 0.00 | 0.00 | 0.00 | 24 | 1015.7 |
| 20260901205436 | 104 | 269 | 5.0 | 9.0 | 0.00 | 0.00 | 0.00 | 23 | 1015.6 |
| 20260901204931 | 104 | 342 | 1.0 | 6.0 | 0.00 | 0.00 | 0.00 | 23 | 1015.7 |
| 20260901204428 | 104 | 198 | 2.0 | 6.0 | 0.00 | 0.00 | 0.00 | 23 | 1015.9 |
| 20260901203927 | 103 | 154 | 2.0 | 4.0 | 0.00 | 0.00 | 0.00 | 24 | 1015.8 |
| 20260901203423 | 103 | 247 | 4.0 | 6.0 | 0.00 | 0.00 | 0.00 | 24 | 1015.9 |
| 20260901202918 | 104 | 49 | 2.0 | 7.0 | 0.00 | 0.00 | 0.00 | 23 | 1015.9 |
| 20260901202412 | 103 | 222 | 4.0 | 6.0 | 0.00 | 0.00 | 0.00 | 23 | 1015.9 |
| 20260901201908 | 102 | 221 | 4.0 | 6.0 | 0.00 | 0.00 | 0.00 | 24 | 1016.0 |
| 20260901201408 | 103 | 188 | 7.0 | 10.0 | 0.00 | 0.00 | 0.00 | 24 | 1016.1 |
| 20260901200908 | 102 | 183 | 2.0 | 9.0 | 0.00 | 0.00 | 0.00 | 25 | 1016.2 |
| 20260901200403 | 103 | 199 | 5.0 | 10.0 | 0.00 | 0.00 | 0.00 | 24 | 1016.2 |
| 20260901195902 | 102 | 226 | 1.0 | 8.0 | 0.00 | 0.00 | 0.00 | 25 | 1016.3 |
| 20260901195401 | 102 | 220 | 1.0 | 8.0 | 0.00 | 0.00 | 0.00 | 26 | 1016.4 |
| 20260901194856 | 101 | 263 | 2.0 | 5.0 | 0.00 | 0.00 | 0.00 | 26 | 1016.4 |
| 20260901194350 | 101 | 200 | 3.0 | 7.0 | 0.00 | 0.00 | 0.00 | 26 | 1016.5 |
| 20260901193847 | 101 | 208 | 2.0 | 8.0 | 0.00 | 0.00 | 0.00 | 26 | 1016.4 |
| 20260901193345 | 102 | 206 | 9.0 | 9.0 | 0.00 | 0.00 | 0.00 | 25 | 1016.5 |
| 20260901192840 | 101 | 255 | 2.0 | 6.0 | 0.00 | 0.00 | 0.00 | 27 | 1016.5 |
| 20260901192336 | 99 | 255 | 9.0 | 11.0 | 0.00 | 0.00 | 0.00 | 27 | 1016.6 |
| 20260901191832 | 99 | 205 | 2.0 | 9.0 | 0.00 | 0.00 | 0.00 | 28 | 1016.6 |
| 20260901191327 | 100 | 279 | 2.0 | 9.0 | 0.00 | 0.00 | 0.00 | 26 | 1017.0 |
| 20260901190823 | 100 | 207 | 4.0 | 9.0 | 0.00 | 0.00 | 0.00 | 26 | 1016.7 |
| 20260901190323 | 101 | 191 | 4.0 | 6.0 | 0.00 | 0.00 | 0.00 | 26 | 1016.7 |
| 20260901185821 | 100 | 255 | 5.0 | 8.0 | 0.00 | 0.00 | 0.00 | 27 | 1017.2 |
| 20260901185321 | 101 | 152 | 2.0 | 13.0 | 0.00 | 0.00 | 0.00 | 26 | 1016.8 |
| 20260901184816 | 100 | 162 | 1.0 | 6.0 | 0.00 | 0.00 | 0.00 | 28 | 1017.1 |
| 20260901184311 | 98 | 285 | 0.0 | 7.0 | 0.00 | 0.00 | 0.00 | 29 | 1016.8 |
| 20260901183807 | 101 | 238 | 4.0 | 7.0 | 0.00 | 0.00 | 0.00 | 27 | 1017.2 |
| 20260901183306 | 101 | 222 | 5.0 | 6.0 | 0.00 | 0.00 | 0.00 | 26 | 1017.2 |
| 20260901182803 | 101 | 168 | 3.0 | 10.0 | 0.00 | 0.00 | 0.00 | 26 | 1017.1 |
| 20260901182305 | 100 | 158 | 2.0 | 13.0 | 0.00 | 0.00 | 0.00 | 26 | 1017.4 |
| 20260901181756 | 99 | 342 | 2.0 | 11.0 | 0.00 | 0.00 | 0.00 | 29 | 1017.5 |
| 20260901181251 | 100 | 285 | 2.0 | 7.0 | 0.00 | 0.00 | 0.00 | 28 | 1017.6 |
| 20260901180751 | 101 | 129 | 3.0 | 5.0 | 0.00 | 0.00 | 0.00 | 26 | 1017.5 |
| 20260901180250 | 100 | 185 | 2.0 | 8.0 | 0.00 | 0.00 | 0.00 | 27 | 1017.6 |
| 20260901175749 | 99 | 265 | 2.0 | 6.0 | 0.00 | 0.00 | 0.00 | 28 | 1017.7 |
| 20260901175244 | 98 | 231 | 4.0 | 4.0 | 0.00 | 0.00 | 0.00 | 30 | 1017.7 |
| 20260901174739 | 98 | 66 | 2.0 | 7.0 | 0.00 | 0.00 | 0.00 | 30 | 1017.7 |
| 20260901174235 | 98 | 274 | 3.0 | 6.0 | 0.00 | 0.00 | 0.00 | 30 | 1017.7 |
| 20260901173731 | 98 | 255 | 4.0 | 7.0 | 0.00 | 0.00 | 0.00 | 31 | 1017.9 |
| 20260901173225 | 98 | 227 | 5.0 | 8.0 | 0.00 | 0.00 | 0.00 | 31 | 1017.7 |
| 20260901172722 | 98 | 215 | 3.0 | 14.0 | 0.00 | 0.00 | 0.00 | 31 | 1017.7 |
| 20260901172220 | 98 | 219 | 4.0 | 7.0 | 0.00 | 0.00 | 0.00 | 30 | 1017.9 |
| 20260901171718 | 97 | 306 | 2.0 | 9.0 | 0.00 | 0.00 | 0.00 | 32 | 1017.8 |
| 20260901171218 | 98 | 223 | 5.0 | 10.0 | 0.00 | 0.00 | 0.00 | 32 | 1018.0 |
| 20260901170717 | 98 | 219 | 4.0 | 6.0 | 0.00 | 0.00 | 0.00 | 32 | 1018.0 |
| 20260901170212 | 97 | 199 | 2.0 | 9.0 | 0.00 | 0.00 | 0.00 | 33 | 1018.2 |
| 20260901165711 | 97 | 278 | 2.0 | 6.0 | 0.00 | 0.00 | 0.00 | 33 | 1018.3 |
| 20260901165206 | 96 | 237 | 4.0 | 8.0 | 0.00 | 0.00 | 0.00 | 33 | 1018.1 |
| 20260901164702 | 96 | 228 | 7.0 | 8.0 | 0.00 | 0.00 | 0.00 | 33 | 1018.1 |
| 20260901164157 | 96 | 230 | 5.0 | 8.0 | 0.00 | 0.00 | 0.00 | 33 | 1018.3 |
| 20260901163653 | 96 | 215 | 5.0 | 8.0 | 0.00 | 0.00 | 0.00 | 34 | 1018.5 |
| 20260901163151 | 95 | 241 | 8.0 | 10.0 | 0.00 | 0.00 | 0.00 | 35 | 1018.2 |
| 20260901162647 | 95 | 233 | 5.0 | 10.0 | 0.00 | 0.00 | 0.00 | 34 | 1018.3 |
| 20260901162146 | 94 | 226 | 2.0 | 7.0 | 0.00 | 0.00 | 0.00 | 34 | 1018.4 |
| 20260901161645 | 94 | 194 | 5.0 | 11.0 | 0.00 | 0.00 | 0.00 | 35 | 1018.5 |
| 20260901161145 | 94 | 136 | 3.0 | 9.0 | 0.00 | 0.00 | 0.00 | 35 | 1018.5 |
| 20260901160642 | 94 | 234 | 6.0 | 6.0 | 0.00 | 0.00 | 0.00 | 35 | 1018.4 |
| 20260901160137 | 94 | 229 | 4.0 | 8.0 | 0.00 | 0.00 | 0.00 | 35 | 1018.4 |
| 20260901155636 | 93 | 259 | 2.0 | 8.0 | 0.00 | 0.00 | 0.00 | 36 | 1018.3 |
| 20260901155131 | 93 | 230 | 6.0 | 7.0 | 0.00 | 0.00 | 0.00 | 36 | 1018.3 |
| 20260901154626 | 92 | 227 | 2.0 | 7.0 | 0.00 | 0.00 | 0.00 | 37 | 1018.0 |
| 20260901154121 | 91 | 228 | 5.0 | 7.0 | 0.00 | 0.00 | 0.00 | 37 | 1018.3 |
| 20260901153616 | 91 | 251 | 6.0 | 9.0 | 0.00 | 0.00 | 0.00 | 38 | 1018.3 |
| 20260901153115 | 91 | 206 | 9.0 | 10.0 | 0.00 | 0.00 | 0.00 | 38 | 1018.3 |
| 20260901152610 | 91 | 272 | 3.0 | 5.0 | 0.00 | 0.00 | 0.00 | 38 | 1018.4 |
| 20260901152109 | 91 | 245 | 2.0 | 7.0 | 0.00 | 0.00 | 0.00 | 38 | 1018.3 |
| 20260901151605 | 91 | 187 | 4.0 | 6.0 | 0.00 | 0.00 | 0.00 | 38 | 1018.4 |
| 20260901151104 | 90 | 277 | 2.0 | 5.0 | 0.00 | 0.00 | 0.00 | 39 | 1018.2 |
| 20260901150603 | 90 | 233 | 9.0 | 10.0 | 0.00 | 0.00 | 0.00 | 39 | 1018.5 |
| 20260901145555 | 89 | 190 | 4.0 | 7.0 | 0.00 | 0.00 | 0.00 | 40 | 1018.2 |
| 20260901145054 | 88 | 307 | 2.0 | 8.0 | 0.00 | 0.00 | 0.00 | 40 | 1018.5 |
| 20260901144550 | 88 | 227 | 2.0 | 9.0 | 0.00 | 0.00 | 0.00 | 42 | 1018.4 |
| 20260901144044 | 88 | 271 | 3.0 | 5.0 | 0.00 | 0.00 | 0.00 | 41 | 1018.3 |
| 20260901143541 | 87 | 228 | 3.0 | 5.0 | 0.00 | 0.00 | 0.00 | 42 | 1018.3 |
| 20260901143037 | 85 | 191 | 1.0 | 5.0 | 0.00 | 0.00 | 0.00 | 45 | 1018.7 |
| 20260901142537 | 84 | 255 | 2.0 | 5.0 | 0.00 | 0.00 | 0.00 | 46 | 1018.6 |
| 20260901142032 | 83 | 273 | 0.0 | 5.0 | 0.00 | 0.00 | 0.00 | 47 | 1018.6 |
| 20260901141532 | 83 | 211 | 3.0 | 4.0 | 0.00 | 0.00 | 0.00 | 47 | 1018.5 |
| 20260901141027 | 82 | 196 | 2.0 | 4.0 | 0.00 | 0.00 | 0.00 | 48 | 1018.7 |
| 20260901140526 | 82 | 220 | 3.0 | 3.0 | 0.00 | 0.00 | 0.00 | 48 | 1018.5 |
| 20260901140021 | 82 | 209 | 3.0 | 6.0 | 0.00 | 0.00 | 0.00 | 48 | 1018.6 |
| 20260901135519 | 82 | 17 | 2.0 | 3.0 | 0.00 | 0.00 | 0.00 | 49 | 1018.5 |
| 20260901135015 | 81 | 168 | 1.0 | 6.0 | 0.00 | 0.00 | 0.00 | 49 | 1018.7 |
| 20260901134511 | 80 | 222 | 2.0 | 2.0 | 0.00 | 0.00 | 0.00 | 50 | 1018.7 |
| 20260901134006 | 80 | 255 | 0.0 | 5.0 | 0.00 | 0.00 | 0.00 | 52 | 1018.7 |
| 20260901133504 | 78 | 209 | 3.0 | 4.0 | 0.00 | 0.00 | 0.00 | 53 | 1018.8 |
| 20260901133004 | 78 | 128 | 0.0 | 3.0 | 0.00 | 0.00 | 0.00 | 53 | 1018.8 |
| 20260901132503 | 77 | 1 | 0.0 | 4.0 | 0.00 | 0.00 | 0.00 | 54 | 1018.6 |
| 20260901132003 | 77 | 220 | 1.0 | 3.0 | 0.00 | 0.00 | 0.00 | 55 | 1018.7 |
| 20260901131457 | 76 | 343 | 0.0 | 2.0 | 0.00 | 0.00 | 0.00 | 56 | 1018.7 |
| 20260901130953 | 76 | 232 | 0.0 | 3.0 | 0.00 | 0.00 | 0.00 | 57 | 1018.7 |
| 20260901130453 | 75 | 269 | 0.0 | 2.0 | 0.00 | 0.00 | 0.00 | 59 | 1018.6 |
| 20260901125950 | 74 | 50 | 0.0 | 1.0 | 0.00 | 0.00 | 0.00 | 60 | 1018.6 |
| 20260901125445 | 73 | 259 | 1.0 | 2.0 | 0.00 | 0.00 | 0.00 | 60 | 1018.5 |
| 20260901124945 | 73 | 0 | 0.0 | 2.0 | 0.00 | 0.00 | 0.00 | 61 | 1018.6 |
| 20260901124440 | 73 | 224 | 0.0 | 1.0 | 0.00 | 0.00 | 0.00 | 61 | 1018.5 |
| 20260901123935 | 72 | 290 | 0.0 | 2.0 | 0.00 | 0.00 | 0.00 | 61 | 1018.6 |
| 20260901123430 | 72 | 333 | 1.0 | 1.0 | 0.00 | 0.00 | 0.00 | 62 | 1018.3 |
| 20260901122928 | 72 | 6 | 0.0 | 2.0 | 0.00 | 0.00 | 0.00 | 62 | 1018.2 |
| 20260901122428 | 72 | 265 | 0.0 | 1.0 | 0.00 | 0.00 | 0.00 | 62 | 1018.5 |
| 20260901121927 | 72 | 343 | 0.0 | 1.0 | 0.00 | 0.00 | 0.00 | 62 | 1018.1 |
| 20260901121422 | 71 | 269 | 0.0 | 2.0 | 0.00 | 0.00 | 0.00 | 62 | 1018.2 |
| 20260901120917 | 71 | 303 | 2.0 | 2.0 | 0.00 | 0.00 | 0.00 | 62 | 1018.1 |
| 20260901120417 | 71 | 322 | 0.0 | 1.0 | 0.00 | 0.00 | 0.00 | 62 | 1018.0 |
| 20260901115913 | 71 | 356 | 1.0 | 1.0 | 0.00 | 0.00 | 0.00 | 62 | 1018.0 |
| 20260901115412 | 72 | 354 | 0.0 | 0.0 | 0.00 | 0.00 | 0.00 | 61 | 1018.1 |
| 20260901114910 | 72 | 339 | 0.0 | 1.0 | 0.00 | 0.00 | 0.00 | 61 | 1017.9 |
| 20260901114406 | 72 | 15 | 0.0 | 1.0 | 0.00 | 0.00 | 0.00 | 61 | 1017.8 |
| 20260901113903 | 72 | 0 | 0.0 | 0.0 | 0.00 | 0.00 | 0.00 | 60 | 1018.0 |
| 20260901113403 | 72 | 24 | 0.0 | 1.0 | 0.00 | 0.00 | 0.00 | 60 | 1017.9 |
| 20260901112858 | 72 | 269 | 0.0 | 1.0 | 0.00 | 0.00 | 0.00 | 60 | 1017.9 |
| 20260901112353 | 73 | 269 | 0.0 | 1.0 | 0.00 | 0.00 | 0.00 | 60 | 1017.9 |
| 20260901111848 | 73 | 309 | 0.0 | 2.0 | 0.00 | 0.00 | 0.00 | 60 | 1017.9 |
| 20260901111346 | 73 | 296 | 0.0 | 1.0 | 0.00 | 0.00 | 0.00 | 59 | 1017.8 |
| 20260901110845 | 73 | 297 | 0.0 | 2.0 | 0.00 | 0.00 | 0.00 | 58 | 1017.8 |
| 20260901110341 | 73 | 297 | 0.0 | 2.0 | 0.00 | 0.00 | 0.00 | 59 | 1018.0 |
| 20260901105837 | 73 | 269 | 0.0 | 2.0 | 0.00 | 0.00 | 0.00 | 58 | 1017.9 |
| 20260901105332 | 74 | 22 | 0.0 | 0.0 | 0.00 | 0.00 | 0.00 | 58 | 1018.0 |
| 20260901104828 | 74 | 218 | 0.0 | 1.0 | 0.00 | 0.00 | 0.00 | 57 | 1018.0 |
| 20260901104323 | 74 | 288 | 1.0 | 1.0 | 0.00 | 0.00 | 0.00 | 57 | 1017.8 |
| 20260901103819 | 74 | 216 | 2.0 | 2.0 | 0.00 | 0.00 | 0.00 | 57 | 1017.7 |
| 20260901103318 | 74 | 297 | 0.0 | 3.0 | 0.00 | 0.00 | 0.00 | 57 | 1017.7 |
| 20260901102813 | 74 | 249 | 0.0 | 2.0 | 0.00 | 0.00 | 0.00 | 56 | 1017.7 |
| 20260901102308 | 74 | 212 | 0.0 | 2.0 | 0.00 | 0.00 | 0.00 | 56 | 1017.9 |
| 20260901101804 | 74 | 278 | 0.0 | 1.0 | 0.00 | 0.00 | 0.00 | 56 | 1017.8 |
| 20260901101303 | 75 | 211 | 0.0 | 2.0 | 0.00 | 0.00 | 0.00 | 56 | 1017.6 |
| 20260901100803 | 75 | 249 | 1.0 | 2.0 | 0.00 | 0.00 | 0.00 | 55 | 1017.6 |
| 20260901100257 | 75 | 0 | 0.0 | 2.0 | 0.00 | 0.00 | 0.00 | 54 | 1017.5 |
| 20260901095756 | 75 | 315 | 0.0 | 2.0 | 0.00 | 0.00 | 0.00 | 54 | 1017.7 |
| 20260901095254 | 76 | 243 | 2.0 | 3.0 | 0.00 | 0.00 | 0.00 | 54 | 1017.5 |
| 20260901094748 | 76 | 32 | 0.0 | 2.0 | 0.00 | 0.00 | 0.00 | 54 | 1017.4 |
| 20260901094243 | 76 | 245 | 0.0 | 2.0 | 0.00 | 0.00 | 0.00 | 54 | 1017.5 |
| 20260901093738 | 76 | 228 | 2.0 | 2.0 | 0.00 | 0.00 | 0.00 | 53 | 1017.5 |
| 20260901093237 | 76 | 257 | 2.0 | 2.0 | 0.00 | 0.00 | 0.00 | 53 | 1017.4 |
| 20260901092734 | 76 | 231 | 1.0 | 2.0 | 0.00 | 0.00 | 0.00 | 53 | 1017.2 |
| 20260901092229 | 76 | 271 | 2.0 | 2.0 | 0.00 | 0.00 | 0.00 | 52 | 1017.3 |
| 20260901091725 | 77 | 208 | 0.0 | 2.0 | 0.00 | 0.00 | 0.00 | 52 | 1017.5 |
| 20260901091220 | 77 | 244 | 2.0 | 2.0 | 0.00 | 0.00 | 0.00 | 52 | 1017.1 |
| 20260901090714 | 77 | 312 | 1.0 | 2.0 | 0.00 | 0.00 | 0.00 | 52 | 1017.2 |
| 20260901090210 | 77 | 312 | 1.0 | 3.0 | 0.00 | 0.00 | 0.00 | 52 | 1017.1 |
| 20260901085706 | 77 | 242 | 0.0 | 2.0 | 0.00 | 0.00 | 0.00 | 51 | 1016.8 |
| 20260901085201 | 77 | 230 | 2.0 | 3.0 | 0.00 | 0.00 | 0.00 | 52 | 1017.2 |
| 20260901084657 | 77 | 242 | 2.0 | 2.0 | 0.00 | 0.00 | 0.00 | 52 | 1017.2 |
| 20260901084153 | 77 | 321 | 0.0 | 2.0 | 0.00 | 0.00 | 0.00 | 52 | 1017.2 |
| 20260901083653 | 77 | 315 | 0.0 | 3.0 | 0.00 | 0.00 | 0.00 | 52 | 1016.5 |
| 20260901083152 | 77 | 217 | 3.0 | 3.0 | 0.00 | 0.00 | 0.00 | 52 | 1017.0 |
| 20260901082652 | 77 | 315 | 0.0 | 1.0 | 0.00 | 0.00 | 0.00 | 51 | 1016.7 |
| 20260901082147 | 77 | 21 | 0.0 | 2.0 | 0.00 | 0.00 | 0.00 | 51 | 1016.8 |
| 20260901081643 | 78 | 323 | 1.0 | 1.0 | 0.00 | 0.00 | 0.00 | 50 | 1016.8 |
| 20260901081142 | 78 | 344 | 0.0 | 3.0 | 0.00 | 0.00 | 0.00 | 50 | 1016.8 |
| 20260901080637 | 78 | 218 | 0.0 | 2.0 | 0.00 | 0.00 | 0.00 | 49 | 1016.7 |
| 20260901080136 | 79 | 224 | 0.0 | 2.0 | 0.00 | 0.00 | 0.00 | 49 | 1016.8 |
| 20260901075631 | 79 | 247 | 0.0 | 5.0 | 0.00 | 0.00 | 0.00 | 48 | 1017.0 |
| 20260901075131 | 79 | 253 | 1.0 | 2.0 | 0.00 | 0.00 | 0.00 | 48 | 1016.6 |
| 20260901074630 | 80 | 307 | 0.0 | 2.0 | 0.00 | 0.00 | 0.00 | 48 | 1016.6 |
| 20260901074125 | 80 | 349 | 0.0 | 3.0 | 0.00 | 0.00 | 0.00 | 47 | 1016.6 |
| 20260901073622 | 80 | 254 | 2.0 | 3.0 | 0.00 | 0.00 | 0.00 | 47 | 1016.8 |
| 20260901073117 | 80 | 269 | 0.0 | 4.0 | 0.00 | 0.00 | 0.00 | 47 | 1016.8 |
| 20260901072612 | 80 | 264 | 2.0 | 2.0 | 0.00 | 0.00 | 0.00 | 46 | 1016.7 |
| 20260901072107 | 80 | 288 | 1.0 | 4.0 | 0.00 | 0.00 | 0.00 | 46 | 1016.8 |
| 20260901071607 | 80 | 271 | 2.0 | 3.0 | 0.00 | 0.00 | 0.00 | 46 | 1017.1 |
| 20260901071107 | 80 | 211 | 1.0 | 4.0 | 0.00 | 0.00 | 0.00 | 46 | 1017.1 |
| 20260901070602 | 80 | 234 | 2.0 | 3.0 | 0.00 | 0.00 | 0.00 | 46 | 1017.1 |
| 20260901070057 | 80 | 318 | 1.0 | 2.0 | 0.00 | 0.00 | 0.00 | 46 | 1017.0 |
| 20260901065551 | 80 | 354 | 0.0 | 2.0 | 0.00 | 0.00 | 0.00 | 47 | 1016.8 |
| 20260901065050 | 81 | 293 | 0.0 | 4.0 | 0.00 | 0.00 | 0.00 | 46 | 1017.0 |
| 20260901064548 | 81 | 223 | 2.0 | 2.0 | 0.00 | 0.00 | 0.00 | 46 | 1017.0 |
| 20260901064044 | 81 | 292 | 2.0 | 3.0 | 0.00 | 0.00 | 0.00 | 46 | 1017.1 |
| 20260901063541 | 81 | 166 | 0.0 | 4.0 | 0.00 | 0.00 | 0.00 | 47 | 1017.1 |
| 20260901063037 | 81 | 56 | 0.0 | 3.0 | 0.00 | 0.00 | 0.00 | 47 | 1017.0 |
| 20260901062532 | 80 | 262 | 2.0 | 2.0 | 0.00 | 0.00 | 0.00 | 47 | 1017.1 |
| 20260901062028 | 80 | 258 | 0.0 | 4.0 | 0.00 | 0.00 | 0.00 | 48 | 1017.0 |
| 20260901061524 | 80 | 342 | 0.0 | 2.0 | 0.00 | 0.00 | 0.00 | 48 | 1017.0 |
| 20260901061019 | 80 | 121 | 0.0 | 2.0 | 0.00 | 0.00 | 0.00 | 48 | 1017.0 |
| 20260901060519 | 80 | 13 | 0.0 | 3.0 | 0.00 | 0.00 | 0.00 | 48 | 1017.1 |
| 20260901060014 | 80 | 38 | 0.0 | 2.0 | 0.00 | 0.00 | 0.00 | 48 | 1017.1 |
| 20260901055509 | 81 | 337 | 0.0 | 3.0 | 0.00 | 0.00 | 0.00 | 48 | 1017.1 |
| 20260901055006 | 81 | 333 | 0.0 | 2.0 | 0.00 | 0.00 | 0.00 | 48 | 1016.8 |
| 20260901054503 | 81 | 341 | 0.0 | 2.0 | 0.00 | 0.00 | 0.00 | 47 | 1017.2 |
| 20260901053959 | 81 | 240 | 0.0 | 1.0 | 0.00 | 0.00 | 0.00 | 47 | 1016.8 |
| 20260901053454 | 82 | 330 | 0.0 | 2.0 | 0.00 | 0.00 | 0.00 | 47 | 1017.0 |
| 20260901052949 | 82 | 331 | 0.0 | 2.0 | 0.00 | 0.00 | 0.00 | 46 | 1016.8 |
| 20260901052445 | 82 | 327 | 1.0 | 2.0 | 0.00 | 0.00 | 0.00 | 46 | 1017.2 |
| 20260901051944 | 82 | 353 | 0.0 | 2.0 | 0.00 | 0.00 | 0.00 | 46 | 1016.8 |
| 20260901051440 | 82 | 5 | 2.0 | 2.0 | 0.00 | 0.00 | 0.00 | 45 | 1016.7 |
| 20260901050939 | 83 | 266 | 2.0 | 2.0 | 0.00 | 0.00 | 0.00 | 45 | 1016.7 |
| 20260901050435 | 83 | 35 | 0.0 | 2.0 | 0.00 | 0.00 | 0.00 | 45 | 1016.8 |
| 20260901045934 | 83 | 37 | 0.0 | 2.0 | 0.00 | 0.00 | 0.00 | 45 | 1016.7 |
| 20260901045430 | 83 | 322 | 0.0 | 3.0 | 0.00 | 0.00 | 0.00 | 45 | 1017.0 |
| 20260901044925 | 83 | 334 | 2.0 | 2.0 | 0.00 | 0.00 | 0.00 | 45 | 1016.7 |
| 20260901044421 | 83 | 38 | 2.0 | 2.0 | 0.00 | 0.00 | 0.00 | 44 | 1016.7 |
| 20260901043916 | 84 | 335 | 2.0 | 2.0 | 0.00 | 0.00 | 0.00 | 44 | 1016.7 |
| 20260901043413 | 84 | 75 | 1.0 | 2.0 | 0.00 | 0.00 | 0.00 | 44 | 1016.7 |
| 20260901042912 | 84 | 19 | 1.0 | 2.0 | 0.00 | 0.00 | 0.00 | 44 | 1016.6 |
| 20260901042407 | 84 | 337 | 1.0 | 3.0 | 0.00 | 0.00 | 0.00 | 44 | 1016.7 |
| 20260901041902 | 85 | 317 | 0.0 | 3.0 | 0.00 | 0.00 | 0.00 | 43 | 1016.5 |
| 20260901041357 | 85 | 196 | 1.0 | 4.0 | 0.00 | 0.00 | 0.00 | 43 | 1016.7 |
| 20260901040856 | 85 | 74 | 2.0 | 2.0 | 0.00 | 0.00 | 0.00 | 43 | 1017.0 |
| 20260901040356 | 85 | 0 | 1.0 | 4.0 | 0.00 | 0.00 | 0.00 | 43 | 1016.8 |
| 20260901035855 | 85 | 331 | 2.0 | 2.0 | 0.00 | 0.00 | 0.00 | 43 | 1016.5 |
| 20260901035354 | 85 | 333 | 1.0 | 2.0 | 0.00 | 0.00 | 0.00 | 44 | 1016.6 |
| 20260901034853 | 85 | 45 | 2.0 | 2.0 | 0.00 | 0.00 | 0.00 | 43 | 1016.5 |
| 20260901034348 | 85 | 9 | 0.0 | 2.0 | 0.00 | 0.00 | 0.00 | 43 | 1016.4 |
| 20260901033843 | 85 | 21 | 1.0 | 2.0 | 0.00 | 0.00 | 0.00 | 43 | 1016.1 |
| 20260901033342 | 85 | 80 | 0.0 | 2.0 | 0.00 | 0.00 | 0.00 | 43 | 1016.2 |
| 20260901032841 | 85 | 299 | 0.0 | 2.0 | 0.00 | 0.00 | 0.00 | 44 | 1016.2 |
| 20260901032340 | 85 | 67 | 1.0 | 1.0 | 0.00 | 0.00 | 0.00 | 44 | 1016.1 |